TimeMST,TemperatureF,Dew PointF,Humidity,Sea Level PressureIn,VisibilityMPH,Wind Direction,Wind SpeedMPH,Gust SpeedMPH,PrecipitationIn,Events,Conditions,WindDirDegrees,DateUTC
12:58 AM,44.1,34.5,69,29.97,10.0,NW,4.6,-,N/A,,Partly Cloudy,320,2013-02-11 07:58:00
1:58 AM,43.3,34.7,72,29.98,10.0,West,5.8,-,N/A,,Partly Cloudy,280,2013-02-11 08:58:00
2:18 AM,42.8,35.6,76,29.97,10.0,NW,3.5,-,N/A,,Mostly Cloudy,320,2013-02-11 09:18:00
2:38 AM,42.8,37.4,81,29.97,10.0,NNW,5.8,-,N/A,,Scattered Clouds,330,2013-02-11 09:38:00
2:58 AM,41.7,36.5,82,29.97,10.0,NNW,5.8,-,N/A,,Clear,330,2013-02-11 09:58:00
3:28 AM,42.8,35.6,76,29.96,10.0,North,2.3,-,N/A,,Mostly Cloudy,360,2013-02-11 10:28:00
3:58 AM,44.2,35.6,72,29.96,10.0,NW,5.8,-,N/A,,Mostly Cloudy,320,2013-02-11 10:58:00
4:08 AM,44.6,35.6,71,29.96,10.0,NW,5.8,-,N/A,,Mostly Cloudy,320,2013-02-11 11:08:00
4:58 AM,43.9,37.2,77,29.96,10.0,NNW,2.3,-,N/A,,Mostly Cloudy,330,2013-02-11 11:58:00
5:58 AM,45.1,36.5,72,29.97,10.0,NNW,5.8,-,N/A,,Mostly Cloudy,340,2013-02-11 12:58:00
6:58 AM,44.4,36.5,74,29.99,10.0,North,4.6,-,N/A,,Scattered Clouds,10,2013-02-11 13:58:00
7:58 AM,45.7,36.9,71,30.01,10.0,NE,9.2,-,N/A,,Overcast,40,2013-02-11 14:58:00
8:08 AM,46.4,37.4,71,30.01,10.0,NNE,6.9,-,N/A,,Overcast,30,2013-02-11 15:08:00
8:58 AM,46.6,36.3,67,30.04,10.0,NNE,8.1,-,N/A,,Overcast,30,2013-02-11 15:58:00
9:58 AM,47.8,36.1,64,30.06,10.0,North,8.1,-,N/A,,Mostly Cloudy,360,2013-02-11 16:58:00
10:36 AM,48.2,37.4,66,30.07,10.0,ENE,3.5,-,N/A,Rain,Light Rain,60,2013-02-11 17:36:00
10:38 AM,48.2,37.4,66,30.07,10.0,ENE,2.3,-,N/A,Rain,Light Rain,70,2013-02-11 17:38:00
10:48 AM,46.4,37.4,71,30.07,10.0,ENE,5.8,-,N/A,Rain,Light Rain,60,2013-02-11 17:48:00
10:58 AM,47.3,38.1,70,30.07,10.0,ENE,8.1,-,0.01,Rain,Light Rain,70,2013-02-11 17:58:00
11:18 AM,48.2,39.2,71,30.07,10.0,ENE,9.2,-,N/A,,Mostly Cloudy,70,2013-02-11 18:18:00
11:38 AM,48.2,37.4,66,30.07,10.0,East,9.2,-,N/A,,Mostly Cloudy,80,2013-02-11 18:38:00
11:59 AM,47.5,38.8,72,30.08,10.0,ESE,10.4,-,0.00,,Mostly Cloudy,110,2013-02-11 18:59:00
12:58 PM,49.5,38.8,67,30.06,10.0,East,8.1,-,N/A,,Scattered Clouds,100,2013-02-11 19:58:00
1:58 PM,50.2,37.0,61,30.06,10.0,SSE,2.3,-,N/A,,Scattered Clouds,160,2013-02-11 20:58:00
2:58 PM,51.1,37.4,60,30.06,10.0,Calm,Calm,-,N/A,,Mostly Cloudy,0,2013-02-11 21:58:00
3:58 PM,50.5,36.0,57,30.06,10.0,North,15.0,20.7,N/A,,Overcast,350,2013-02-11 22:58:00
4:48 PM,48.2,37.4,66,30.07,10.0,NNW,1.2,-,N/A,,Scattered Clouds,340,2013-02-11 23:48:00
4:58 PM,48.6,36.9,64,30.08,10.0,WNW,2.3,-,N/A,,Partly Cloudy,300,2013-02-11 23:58:00
5:58 PM,48.9,36.9,63,30.09,10.0,West,6.9,-,N/A,,Clear,280,2013-02-12 00:58:00
6:58 PM,46.8,35.8,66,30.09,10.0,WNW,2.3,-,N/A,,Clear,290,2013-02-12 01:58:00
7:58 PM,44.4,37.9,78,30.12,10.0,SSW,3.5,-,N/A,,Clear,200,2013-02-12 02:58:00
8:58 PM,43.5,37.4,79,30.14,10.0,WSW,2.3,-,N/A,,Clear,240,2013-02-12 03:58:00
9:58 PM,42.4,37.6,83,30.15,10.0,SW,2.3,-,N/A,,Clear,220,2013-02-12 04:58:00
10:58 PM,41.7,37.4,85,30.16,10.0,South,4.6,-,N/A,,Clear,190,2013-02-12 05:58:00
11:58 PM,38.5,37.8,97,30.18,10.0,North,2.3,-,N/A,,Clear,10,2013-02-12 06:58:00